GW1004 Weather Reports


Display with metric or nautical units.
time (UTC)temp
F
wind
direction
speed
MPH
gust
MPH
rain 1hr
in
rain 24hr
in
rain mn
in
humidity
%
barometer
mb
20260505121346 63 210 2.0 3.0 0.00 0.00 0.00 64 1013.1
20260505120842 63 298 1.0 1.0 0.00 0.00 0.00 64 1012.9
20260505120338 63 248 3.0 5.0 0.00 0.00 0.00 64 1012.9
20260505115837 62 272 1.0 3.0 0.00 0.00 0.00 65 1012.7
20260505115334 62 277 2.0 2.0 0.00 0.00 0.00 65 1012.8
20260505114832 62 258 2.0 3.0 0.00 0.00 0.00 65 1012.8
20260505114328 62 197 3.0 3.0 0.00 0.00 0.00 67 1012.9
20260505113825 61 265 3.0 3.0 0.00 0.00 0.00 67 1012.7
20260505113322 61 269 1.0 1.0 0.00 0.00 0.00 68 1013.0
20260505112817 61 192 2.0 2.0 0.00 0.00 0.00 68 1012.9
20260505112315 61 222 2.0 2.0 0.00 0.00 0.00 69 1012.7
20260505111810 60 280 2.0 2.0 0.00 0.00 0.00 69 1012.5
20260505111306 60 262 1.0 1.0 0.00 0.00 0.00 69 1012.5
20260505110802 60 265 1.0 1.0 0.00 0.00 0.00 69 1012.4
20260505110300 60 273 1.0 2.0 0.00 0.00 0.00 70 1012.5
20260505101734 59 236 3.0 5.0 0.00 0.00 0.00 71 1012.3
20260505101230 60 244 3.0 5.0 0.00 0.00 0.00 72 1012.2
20260505100727 60 247 3.0 3.0 0.00 0.00 0.00 71 1012.1
20260505100223 60 203 2.0 3.0 0.00 0.00 0.00 71 1011.9
20260505095718 60 243 2.0 3.0 0.00 0.00 0.00 71 1012.0
20260505095217 60 231 3.0 5.0 0.00 0.00 0.00 71 1011.9
20260505094712 60 255 2.0 3.0 0.00 0.00 0.00 71 1011.9
20260505094208 60 232 2.0 3.0 0.00 0.00 0.00 71 1011.9
20260505093705 60 190 2.0 2.0 0.00 0.00 0.00 71 1011.9
20260505093202 60 218 3.0 5.0 0.00 0.00 0.00 70 1011.8
20260505092659 60 267 3.0 3.0 0.00 0.00 0.00 70 1011.8
20260505092158 60 225 3.0 3.0 0.00 0.00 0.00 70 1011.7
20260505091654 60 227 3.0 5.0 0.00 0.00 0.00 70 1012.0
20260505091152 60 205 2.0 3.0 0.00 0.00 0.00 70 1011.8
20260505090649 60 250 4.0 6.0 0.00 0.00 0.00 69 1011.6
20260505090148 60 190 6.0 7.0 0.00 0.00 0.00 70 1011.8
20260505085645 60 238 5.0 6.0 0.00 0.00 0.00 69 1011.7
20260505085143 60 250 3.0 3.0 0.00 0.00 0.00 70 1011.8
20260505084640 60 184 3.0 3.0 0.00 0.00 0.00 70 1011.7
20260505084139 60 223 3.0 5.0 0.00 0.00 0.00 70 1011.9
20260505083636 60 219 2.0 3.0 0.00 0.00 0.00 71 1011.8
20260505083132 60 271 2.0 3.0 0.00 0.00 0.00 72 1011.8
20260505082628 60 259 2.0 3.0 0.00 0.00 0.00 72 1011.8
20260505082126 60 238 3.0 3.0 0.00 0.00 0.00 72 1012.0
20260505081621 60 237 3.0 3.0 0.00 0.00 0.00 72 1012.0
20260505081119 59 258 1.0 2.0 0.00 0.00 0.00 71 1011.9
20260505080615 59 249 2.0 2.0 0.00 0.00 0.00 72 1011.9
20260505080112 59 251 2.0 2.0 0.00 0.00 0.00 72 1011.7
20260505075608 60 234 2.0 2.0 0.00 0.00 0.00 71 1011.9
20260505075104 60 260 2.0 2.0 0.00 0.00 0.00 71 1011.9
20260505074601 60 237 2.0 2.0 0.00 0.00 0.00 71 1011.8
20260505074059 60 259 3.0 3.0 0.00 0.00 0.00 70 1011.8
20260505073556 60 229 2.0 3.0 0.00 0.00 0.00 70 1012.0
20260505073055 59 216 2.0 2.0 0.00 0.00 0.00 70 1012.0
20260505072549 59 218 2.0 2.0 0.00 0.00 0.00 70 1011.9
20260505072046 59 240 2.0 2.0 0.00 0.00 0.00 70 1011.9
20260505071541 59 210 2.0 2.0 0.00 0.00 0.00 70 1012.0
20260505071040 59 224 2.0 2.0 0.00 0.00 0.00 70 1012.0
20260505070537 59 234 2.0 2.0 0.00 0.00 0.00 70 1012.0
20260505070033 59 254 1.0 1.0 0.00 0.00 0.00 70 1011.7
20260505065529 59 209 2.0 2.0 0.00 0.00 0.00 70 1011.9
20260505065026 59 178 2.0 3.0 0.00 0.00 0.00 70 1011.7
20260505064523 59 217 3.0 5.0 0.00 0.00 0.00 70 1011.8
20260505064022 59 193 2.0 3.0 0.00 0.00 0.00 70 1011.6
20260505063518 59 234 3.0 3.0 0.00 0.00 0.00 70 1011.9
20260505063013 59 240 5.0 7.0 0.00 0.00 0.00 70 1011.9
20260505062511 59 184 3.0 5.0 0.00 0.00 0.00 70 1012.0
20260505062008 59 270 4.0 5.0 0.00 0.00 0.00 70 1011.9
20260505061505 59 244 2.0 2.0 0.00 0.00 0.00 69 1011.9
20260505061003 59 217 3.0 3.0 0.00 0.00 0.00 69 1011.9
20260505060500 59 226 3.0 5.0 0.00 0.00 0.00 69 1012.0
20260505055956 59 179 3.0 3.0 0.00 0.00 0.00 68 1011.9
20260505055452 59 223 3.0 3.0 0.00 0.00 0.00 68 1011.8
20260505054949 59 248 2.0 3.0 0.00 0.00 0.00 68 1012.0
20260505054446 59 235 3.0 3.0 0.00 0.00 0.00 68 1011.9
20260505053944 60 212 3.0 3.0 0.00 0.00 0.00 67 1011.9
20260505053441 60 185 3.0 5.0 0.00 0.00 0.00 66 1012.0
20260505052938 60 245 3.0 3.0 0.00 0.00 0.00 66 1011.8
20260505052435 60 243 4.0 6.0 0.00 0.00 0.00 66 1012.0
20260505051932 60 217 3.0 3.0 0.00 0.00 0.00 65 1012.0
20260505051429 60 182 3.0 3.0 0.00 0.00 0.00 65 1012.0
20260505050927 60 178 2.0 3.0 0.00 0.00 0.00 64 1012.1
20260505050425 60 175 5.0 6.0 0.00 0.00 0.00 63 1012.1
20260505041352 61 225 4.0 7.0 0.00 0.00 0.00 57 1011.9
20260505040849 61 188 4.0 6.0 0.00 0.00 0.00 57 1011.9
20260505040347 61 235 3.0 3.0 0.00 0.00 0.00 56 1011.7
20260505035844 61 260 1.0 2.0 0.00 0.00 0.00 55 1011.8
20260505035339 61 193 5.0 5.0 0.00 0.00 0.00 55 1011.7
20260505034837 61 213 3.0 3.0 0.00 0.00 0.00 54 1011.9
20260505034333 62 246 3.0 3.0 0.00 0.00 0.00 54 1011.7
20260505033831 62 244 3.0 5.0 0.00 0.00 0.00 53 1011.9
20260505033327 62 206 2.0 3.0 0.00 0.00 0.00 53 1012.0
20260505032826 62 202 4.0 5.0 0.00 0.00 0.00 52 1011.8
20260505032321 62 183 5.0 6.0 0.00 0.00 0.00 52 1012.0
20260505031819 63 184 4.0 6.0 0.00 0.00 0.00 51 1012.0
20260505031315 63 187 3.0 5.0 0.00 0.00 0.00 51 1012.0
20260505030813 63 186 5.0 6.0 0.00 0.00 0.00 51 1012.1
20260505030310 63 188 4.0 5.0 0.00 0.00 0.00 50 1012.0
20260505025804 63 216 4.0 6.0 0.00 0.00 0.00 50 1012.1
20260505025304 64 240 2.0 2.0 0.00 0.00 0.00 50 1012.0
20260505024800 64 190 5.0 8.0 0.00 0.00 0.00 50 1012.0
20260505024258 64 192 5.0 6.0 0.00 0.00 0.00 50 1012.3
20260505023755 64 232 4.0 6.0 0.00 0.00 0.00 50 1012.3
20260505023252 64 181 4.0 5.0 0.00 0.00 0.00 50 1012.1
20260505022750 64 190 3.0 3.0 0.00 0.00 0.00 50 1012.3
20260505022246 64 198 3.0 3.0 0.00 0.00 0.00 50 1012.2
20260505021742 64 240 3.0 3.0 0.00 0.00 0.00 49 1012.3
20260505021240 64 204 3.0 5.0 0.00 0.00 0.00 49 1012.2
20260505020735 64 261 2.0 3.0 0.00 0.00 0.00 49 1012.2
20260505020231 64 187 3.0 5.0 0.00 0.00 0.00 48 1012.2
20260505015728 64 236 3.0 5.0 0.00 0.00 0.00 48 1012.2
20260505015225 65 233 3.0 5.0 0.00 0.00 0.00 48 1012.2
20260505014722 65 223 2.0 2.0 0.00 0.00 0.00 48 1012.1
20260505014220 65 207 1.0 2.0 0.00 0.00 0.00 48 1012.2
20260505013716 65 249 2.0 2.0 0.00 0.00 0.00 47 1012.0
20260505013213 65 226 4.0 5.0 0.00 0.00 0.00 47 1012.1
20260505012711 65 209 4.0 5.0 0.00 0.00 0.00 47 1012.0
20260505012208 66 195 3.0 5.0 0.00 0.00 0.00 46 1012.1
20260505011704 66 181 3.0 3.0 0.00 0.00 0.00 45 1012.1
20260505011201 66 177 4.0 5.0 0.00 0.00 0.00 45 1012.1
20260505010656 66 235 2.0 3.0 0.00 0.00 0.00 45 1011.9
20260505010154 66 223 4.0 6.0 0.00 0.00 0.00 45 1012.0
20260505005650 66 174 4.0 6.0 0.00 0.00 0.00 46 1011.8
20260505005147 66 216 2.0 2.0 0.00 0.00 0.00 45 1011.7
20260505004644 66 231 1.0 1.0 0.00 0.00 0.00 45 1011.8
20260505004140 66 231 1.0 2.0 0.00 0.00 0.00 44 1011.7
20260505003638 66 204 2.0 3.0 0.00 0.00 0.00 44 1011.5
20260505003135 66 233 2.0 2.0 0.00 0.00 0.00 44 1011.6
20260505002631 66 243 2.0 2.0 0.00 0.00 0.00 43 1011.5
20260505002129 67 247 1.0 1.0 0.00 0.00 0.00 44 1011.5
20260505001626 67 246 2.0 2.0 0.00 0.00 0.00 43 1011.4
20260505001124 67 185 2.0 3.0 0.00 0.00 0.00 43 1011.5
20260505000620 67 254 1.0 1.0 0.00 0.00 0.00 43 1011.5
20260505000119 67 254 1.0 1.0 0.00 0.00 0.00 43 1011.6
20260504235615 67 251 1.0 2.0 0.00 0.00 0.00 42 1011.6
20260504235111 67 248 2.0 2.0 0.00 0.00 0.00 42 1011.4
20260504234608 67 249 1.0 2.0 0.00 0.00 0.00 42 1011.5
20260504234106 68 256 1.0 1.0 0.00 0.00 0.00 41 1011.3
20260504233602 68 191 2.0 2.0 0.00 0.00 0.00 41 1011.4
20260504233058 68 260 0.0 1.0 0.00 0.00 0.00 41 1011.5
20260504232555 68 250 2.0 2.0 0.00 0.00 0.00 41 1011.4
20260504232053 68 186 3.0 3.0 0.00 0.00 0.00 40 1011.3
20260504231549 68 225 3.0 5.0 0.00 0.00 0.00 41 1011.2
20260504231045 68 262 1.0 2.0 0.00 0.00 0.00 40 1011.4
20260504230542 68 243 2.0 2.0 0.00 0.00 0.00 42 1011.4
20260504230041 68 256 1.0 1.0 0.00 0.00 0.00 41 1011.4
20260504225538 68 247 2.0 2.0 0.00 0.00 0.00 40 1011.3
20260504225035 69 250 1.0 1.0 0.00 0.00 0.00 39 1011.4
20260504224531 69 262 2.0 2.0 0.00 0.00 0.00 40 1011.5
20260504224028 69 259 1.0 1.0 0.00 0.00 0.00 39 1011.2
20260504223525 69 254 2.0 2.0 0.00 0.00 0.00 39 1011.6
20260504223021 69 190 5.0 7.0 0.00 0.00 0.00 39 1011.4
20260504222518 69 207 4.0 5.0 0.00 0.00 0.00 39 1011.6
20260504222016 69 209 4.0 5.0 0.00 0.00 0.00 38 1011.3
20260504221513 69 277 1.0 1.0 0.00 0.00 0.00 38 1011.4
20260504221009 69 274 2.0 2.0 0.00 0.00 0.00 38 1011.4
20260504220506 69 262 2.0 3.0 0.00 0.00 0.00 38 1011.5
20260504220003 69 257 1.0 1.0 0.00 0.00 0.00 38 1011.5
20260504215459 69 262 3.0 5.0 0.00 0.00 0.00 38 1011.6
20260504214956 69 223 3.0 3.0 0.00 0.00 0.00 37 1011.5
20260504214453 69 262 1.0 2.0 0.00 0.00 0.00 37 1011.5
20260504213949 69 199 3.0 3.0 0.00 0.00 0.00 38 1011.7
20260504213445 70 266 2.0 2.0 0.00 0.00 0.00 37 1011.6
20260504212943 69 286 2.0 3.0 0.00 0.00 0.00 38 1011.6
20260504212438 69 246 0.0 1.0 0.00 0.00 0.00 38 1011.8
20260504211936 69 240 3.0 3.0 0.00 0.00 0.00 38 1011.7
20260504211432 70 206 3.0 5.0 0.00 0.00 0.00 38 1011.5
20260504210930 70 254 1.0 2.0 0.00 0.00 0.00 38 1011.5
20260504210427 70 203 2.0 2.0 0.00 0.00 0.00 38 1011.5
20260504205924 70 226 2.0 2.0 0.00 0.00 0.00 38 1011.5
20260504205421 69 245 1.0 1.0 0.00 0.00 0.00 38 1011.8
20260504204919 69 245 1.0 2.0 0.00 0.00 0.00 38 1011.4
20260504204417 69 184 3.0 3.0 0.00 0.00 0.00 38 1011.4
20260504203916 69 204 3.0 3.0 0.00 0.00 0.00 38 1011.5
20260504203414 70 181 4.0 6.0 0.00 0.00 0.00 37 1011.6
20260504202909 70 245 2.0 3.0 0.00 0.00 0.00 37 1011.8
20260504202406 70 262 1.0 2.0 0.00 0.00 0.00 37 1011.7
20260504201903 70 211 2.0 2.0 0.00 0.00 0.00 37 1011.7
20260504201401 70 239 2.0 2.0 0.00 0.00 0.00 36 1011.7
20260504200857 70 240 3.0 3.0 0.00 0.00 0.00 36 1011.9
20260504200354 70 248 3.0 3.0 0.00 0.00 0.00 37 1011.9
20260504195851 70 250 3.0 5.0 0.00 0.00 0.00 37 1011.8
20260504195346 70 232 3.0 3.0 0.00 0.00 0.00 37 1012.0
20260504194843 70 240 2.0 2.0 0.00 0.00 0.00 36 1012.0
20260504194339 71 283 2.0 3.0 0.00 0.00 0.00 36 1011.9
20260504193835 71 233 4.0 5.0 0.00 0.00 0.00 36 1011.9
20260504193333 71 278 1.0 2.0 0.00 0.00 0.00 35 1012.0
20260504192831 71 271 2.0 2.0 0.00 0.00 0.00 36 1012.1
20260504192329 70 132 2.0 3.0 0.00 0.00 0.00 36 1012.2
20260504191827 71 229 3.0 3.0 0.00 0.00 0.00 35 1012.1
20260504191324 71 268 2.0 3.0 0.00 0.00 0.00 35 1012.3
20260504190820 71 217 2.0 3.0 0.00 0.00 0.00 35 1012.4
20260504190316 71 187 4.0 7.0 0.00 0.00 0.00 36 1012.3
20260504185813 71 343 3.0 3.0 0.00 0.00 0.00 35 1012.6
20260504185310 71 179 2.0 3.0 0.00 0.00 0.00 35 1012.6
20260504184806 72 179 3.0 5.0 0.00 0.00 0.00 34 1012.7
20260504184302 72 293 1.0 1.0 0.00 0.00 0.00 34 1012.7
20260504183758 73 207 1.0 3.0 0.00 0.00 0.00 34 1012.7
20260504183255 72 270 1.0 2.0 0.00 0.00 0.00 36 1012.9
20260504182753 71 185 2.0 3.0 0.00 0.00 0.00 35 1012.9
20260504182249 72 269 4.0 5.0 0.00 0.00 0.00 33 1013.0
20260504181747 72 201 1.0 1.0 0.00 0.00 0.00 34 1012.9
20260504181244 72 162 3.0 5.0 0.00 0.00 0.00 34 1013.0
20260504180743 72 193 5.0 5.0 0.00 0.00 0.00 34 1013.0
20260504180242 73 257 3.0 3.0 0.00 0.00 0.00 33 1013.1
20260504175739 74 302 1.0 1.0 0.00 0.00 0.00 33 1013.3
20260504175236 74 289 1.0 1.0 0.00 0.00 0.00 33 1013.3
20260504174734 73 252 1.0 1.0 0.00 0.00 0.00 34 1013.5
20260504174232 73 278 3.0 3.0 0.00 0.00 0.00 34 1013.6
20260504173727 73 256 2.0 2.0 0.00 0.00 0.00 34 1013.3
20260504173225 73 236 2.0 5.0 0.00 0.00 0.00 34 1013.6
20260504172721 71 294 0.0 0.0 0.00 0.00 0.00 33 1013.7
20260504172218 72 278 2.0 2.0 0.00 0.00 0.00 35 1013.4
20260504171714 72 256 3.0 3.0 0.00 0.00 0.00 34 1013.8
20260504171211 71 252 2.0 3.0 0.00 0.00 0.00 34 1013.6
20260504170708 71 187 3.0 5.0 0.00 0.00 0.00 33 1013.9
20260504170206 71 276 2.0 3.0 0.00 0.00 0.00 34 1014.1
20260504160124 71 283 1.0 1.0 0.00 0.00 0.00 38 1014.8
20260504151051 68 212 3.0 3.0 0.00 0.00 0.00 38 1015.2
20260504150548 68 280 1.0 2.0 0.00 0.00 0.00 37 1015.1
20260504141015 64 196 4.0 5.0 0.00 0.00 0.00 50 1015.2
20260504140511 63 245 1.0 2.0 0.00 0.00 0.00 50 1015.2
20260504130436 59 197 5.0 6.0 0.00 0.00 0.00 62 1015.4